#timestamp,LO_Frequency,Hit,StdDev 
1579960815.3,286047004.3,N
1579960835.1,286047004.3,N
1579960855.9,286047001.9,N
1579960875.7,286047002.6,N
1579960895.6,286047004.0,N
1579960915.4,286047001.5,N
1579960935.2,286047001.7,N
1579960955.1,286047003.0,N
1579960956.0,286047003.0,N
1579960975.8,286047004.4,N
1579960995.6,286047003.8,N
1579961015.5,286047001.9,N
1579961035.3,286047001.7,N
1579961055.2,286047004.1,N
1579961075.9,286047003.4,N
1579961095.7,286047005.5,N
1579961115.6,286047004.8,N
1579961135.4,286047003.8,N
1579961155.2,286047001.7,N
1579961175.1,286047003.9,N
1579961176.0,286047003.9,N
1579961195.8,286047002.3,N
1579961215.7,286047004.3,N
1579961235.5,286047001.4,N
1579961255.3,286047002.0,N
1579961275.2,286046999.8,N
1579961295.0,286047011.9,Y
1579961295.9,286047002.4,P
1579961315.8,286046999.1,P
1579961335.6,286047001.2,N
1579961355.4,286047000.6,N
1579961375.3,286047000.3,N
1579961395.1,286046999.8,N
1579961415.9,286047000.4,N
1579961435.7,286046998.7,N
1579961455.5,286046999.3,N
1579961475.4,286046995.3,Y
1579961495.2,286046995.5,P
1579961515.0,286046997.7,N
1579961515.9,286046997.7,N
1579961535.8,286046997.0,N
1579961555.6,286046997.8,N
1579961575.5,286046999.5,N
1579961595.3,286046998.7,N
1579961615.1,286047000.8,N
1579961665.9,286047000.4,E
1579961675.8,286046998.4,N
1579961695.7,286046997.0,P
1579961715.5,286046998.2,N
1579961735.3,286047000.4,N
1579961755.2,286047000.0,N
1579961775.0,286047000.9,N
1579961775.9,286047000.9,N
1579961795.8,286047000.7,N
1579961815.6,286047000.7,N
1579961835.4,286046999.2,N
1579961855.3,286046998.8,N
1579961875.1,286046999.7,N
1579961895.8,286046999.9,N
1579961915.7,286047002.6,N
1579961935.5,286046998.6,N
1579961955.4,286047000.8,N
1579961975.2,286047001.2,N
1579961995.0,286046998.8,N
1579961995.9,286046998.8,N
1579962015.8,286046999.1,N
1579962035.6,286046997.1,N
1579962055.5,286046997.4,N
1579962075.3,286046997.4,N
1579962095.1,286046996.8,N
1579962115.9,286047001.1,N
1579962135.7,286046998.4,N
1579962155.6,286046999.4,N
1579962175.4,286046998.6,N
1579962195.2,286046999.2,N
1579962215.1,286046995.6,Y
1579962216.0,286046995.6,P
1579962235.8,286046996.7,N
1579962255.7,286046996.5,N
1579962275.5,286046998.3,N
1579962295.3,286046997.0,N
1579962345.2,286046998.8,E
1579962355.1,286046998.4,N
1579962375.9,286046999.6,P
1579962395.7,286046999.0,N
1579962415.5,286047001.0,N
1579962435.4,286047000.9,N
1579962455.2,286046999.8,N
1579962475.1,286047000.2,N
1579962476.0,286047000.2,N
1579962495.8,286047002.3,N
1579962515.6,286047000.9,N
1579962535.5,286046998.9,N
1579962555.3,286046998.2,N
1579962575.2,286046998.9,N
1579962595.9,286047000.9,N
1579962615.7,286047001.2,N
1579962635.6,286047002.0,N
1579962655.4,286047001.3,N
1579962675.2,286047001.8,N
1579962695.1,286047001.8,N
1579962696.0,286047001.8,N
1579962715.8,286047002.7,N
1579962735.7,286047000.4,N
1579962755.5,286047002.4,N
1579962775.3,286047002.8,N
1579962795.2,286047004.3,Y
1579962815.0,286047002.8,P
1579962815.9,286047002.8,N
1579962835.8,286047002.3,N
1579962855.9,286047001.4,N
1579962875.7,286046999.7,N
1579962895.6,286047003.8,Y
1579962915.4,286047002.1,P
1579962935.2,286047002.7,P
1579962955.1,286047000.9,N
1579962956.0,286047000.9,N
1579962975.8,286046998.8,N
1579962995.7,286047001.0,N
1579963015.5,286047000.3,N
1579963035.3,286046998.5,N
1579963055.2,286047001.7,N
1579963075.0,286047001.8,N
1579963075.9,286047001.8,N
1579963095.8,286047001.0,N
1579963115.6,286046999.8,N
1579963135.4,286047001.2,N
1579963155.3,286046998.6,N
1579963175.1,286047002.1,N
1579963195.8,286047002.1,N
1579963215.7,286047001.5,N
1579963235.5,286047002.0,N
1579963255.3,286047002.3,N
1579963275.2,286046998.5,N
1579963295.0,286046996.5,N
1579963295.9,286046996.5,N
1579963315.8,286046996.9,N
1579963335.6,286046999.1,N
1579963355.4,286047001.2,N
1579963375.3,286047002.0,N
1579963395.1,286047002.1,N
1579963415.9,286047002.7,N
1579963435.7,286047000.1,N
1579963455.5,286047000.4,N
1579963475.4,286046999.9,N
1579963495.2,286046999.9,N
1579963515.0,286047001.1,N
1579963515.9,286047001.1,N
1579963535.8,286046999.2,N
1579963555.6,286046999.1,N
1579963575.5,286047001.6,N
1579963595.3,286046999.8,N
1579963615.1,286047000.4,N
1579963635.9,286047000.4,N
1579963655.7,286047000.9,N
1579963675.5,286046997.9,N
1579963695.4,286046996.9,N
1579963715.2,286047000.7,N
1579963735.1,286047001.9,N
1579963736.0,286047001.9,N
1579963755.8,286047002.0,N
1579963775.6,286046999.9,N
1579963795.5,286047000.7,N
1579963815.3,286046998.7,N
1579963835.1,286046999.5,N
1579963855.9,286046998.5,N
1579963875.7,286047000.9,N
1579963895.6,286046999.8,N
1579963915.4,286046999.9,N
1579963935.2,286047002.4,N
1579963955.1,286047000.9,N
1579963956.0,286047000.9,N
1579963975.8,286046995.0,Y
1579963995.7,286046995.8,P
1579964015.5,286046997.5,N
1579964035.3,286046999.0,N
1579964055.2,286046997.2,N
1579964075.0,286046996.7,N
1579964075.9,286046996.7,N
1579964095.8,286046999.2,N
1579964115.6,286046997.6,N
1579964135.4,286046995.2,Y
1579964155.3,286046999.5,P
1579964175.1,286046998.7,N
1579964195.8,286046998.8,N
1579964215.7,286047000.4,N
1579964235.5,286047000.4,N
1579964255.4,286047001.9,N
1579964275.2,286047001.6,N
1579964295.0,286047003.9,N
1579964295.9,286047003.9,N
1579964315.8,286047003.8,N
1579964335.6,286047006.2,N
1579964355.5,286047004.5,N
1579964375.3,286047011.9,Y
1579964395.1,286047002.4,P
